Stations météo

réclame
Mon MeteoGroup
F3, Pays-Bas (6239): Température de l'air & dewpoint: 19.11.2017 02:00:00 - 25.11.2017 02:00:00 (CET)F3, Pays-Bas (6239): Vitesse du vent & gusts: 19.11.2017 02:00:00 - 25.11.2017 02:00:00 (CET)F3, Pays-Bas (6239): reduced air pressure: 19.11.2017 02:00:00 - 25.11.2017 02:00:00 (CET)F3, Pays-Bas (6239): visibility: 19.11.2017 02:00:00 - 25.11.2017 02:00:00 (CET)
Date & Time tt [°C] td [°C] ff [km/h] ff [knt] fx [km/h] fx [knt] ppp [hPa] vv [km]
25.11.2017 02:00:00 8,2 1,3 46 25 50 27 1006,8 10
25.11.2017 01:00:00 8,1 0,4 39 21 - - 1007,7 10
25.11.2017 00:00:00 7,9 -1,2 35 19 43 23 1008,0 10
24.11.2017 23:00:00 7,8 0,0 41 22 43 23 1008,4 10
24.11.2017 22:00:00 7,6 -0,7 41 22 - - 1008,4 10
24.11.2017 21:00:00 7,7 -0,1 39 21 43 23 1008,7 10
24.11.2017 20:00:00 7,7 0,6 35 19 40 21 1008,4 10
24.11.2017 19:00:00 7,7 0,1 35 19 - - 1008,3 10
24.11.2017 18:00:00 7,6 0,3 41 22 40 21 1007,9 10
24.11.2017 17:00:00 7,4 1,9 35 19 47 25 1007,3 10
24.11.2017 16:00:00 7,3 1,6 34 18 - - 1007,1 10
24.11.2017 15:00:00 5,3 1,4 54 29 54 29 1007,3 10
24.11.2017 14:00:00 7,5 1,8 42 23 43 23 1006,4 -
24.11.2017 13:00:00 7,6 1,6 29 16 - - 1006,2 10
24.11.2017 12:00:00 7,7 1,4 35 19 50 27 1006,0 10
24.11.2017 11:00:00 7,1 2,0 29 16 47 25 1005,6 7
24.11.2017 10:00:00 7,7 1,0 35 19 - - 1005,1 10
24.11.2017 09:00:00 8,0 0,6 35 19 36 19 1004,5 10
24.11.2017 08:00:00 8,2 0,4 35 19 36 19 1003,9 10
24.11.2017 07:00:00 8,4 1,5 39 21 - - 1003,2 10
24.11.2017 06:00:00 8,5 1,6 39 21 43 23 1003,0 10
24.11.2017 05:00:00 8,5 3,1 44 24 47 25 1002,7 10
24.11.2017 04:00:00 8,7 3,5 42 23 - - 1002,2 10
24.11.2017 03:00:00 8,9 3,3 48 26 50 27 1001,7 10
24.11.2017 02:00:00 8,9 4,0 54 29 50 27 1001,6 10
24.11.2017 01:00:00 9,0 2,2 57 31 - - 1001,4 10
24.11.2017 00:00:00 9,1 2,7 55 30 58 31 1000,8 10
23.11.2017 23:00:00 9,1 3,2 52 28 68 37 999,9 10
23.11.2017 22:00:00 9,3 3,1 68 37 - - 998,8 10
23.11.2017 21:00:00 9,3 3,2 80 43 83 45 997,2 10
23.11.2017 20:00:00 10,0 3,0 89 48 90 49 995,4 10
23.11.2017 19:00:00 11,0 4,2 80 43 - - 994,4 10
23.11.2017 18:00:00 9,0 4,1 81 44 94 51 994,3 10
23.11.2017 17:00:00 10,1 4,0 76 41 79 43 993,5 10
23.11.2017 16:00:00 10,1 2,4 67 36 - - 993,3 10
23.11.2017 15:00:00 9,8 2,4 67 36 68 37 992,4 10
23.11.2017 14:00:00 9,4 2,6 68 37 68 37 991,5 10
23.11.2017 13:00:00 9,5 2,3 67 36 - - 989,9 10
23.11.2017 12:00:00 10,3 6,4 72 39 76 41 987,9 10
23.11.2017 11:00:00 10,2 8,2 72 39 76 41 985,7 10
23.11.2017 10:00:00 12,4 10,5 78 42 - - 983,9 10
23.11.2017 09:00:00 12,2 10,0 80 43 83 45 983,8 3,8
23.11.2017 08:00:00 13,0 9,3 81 44 83 45 983,8 10
23.11.2017 07:00:00 12,9 9,0 85 46 - - 983,7 6
23.11.2017 06:00:00 13,1 8,9 85 46 86 47 983,9 10
23.11.2017 05:00:00 13,4 9,2 80 43 86 47 984,1 10
23.11.2017 04:00:00 13,4 9,3 81 44 - - 984,8 10
23.11.2017 03:00:00 13,3 9,1 78 42 83 45 986,0 10
23.11.2017 02:00:00 13,2 8,8 80 43 83 45 986,7 10
23.11.2017 01:00:00 13,0 8,4 83 45 - - 987,1 10
23.11.2017 00:00:00 12,9 8,3 83 45 90 49 987,4 10
22.11.2017 23:00:00 13,0 7,7 81 44 86 47 987,9 10
22.11.2017 22:00:00 12,8 8,1 76 41 - - 988,8 10
22.11.2017 21:00:00 12,7 9,0 74 40 79 43 989,8 10
22.11.2017 20:00:00 12,4 9,3 78 42 83 45 990,1 10
22.11.2017 19:00:00 12,4 9,5 78 42 - - 990,9 10
22.11.2017 18:00:00 12,6 9,5 74 40 76 41 991,3 10
22.11.2017 17:00:00 12,5 9,9 72 39 76 41 992,0 10
22.11.2017 16:00:00 12,7 10,1 70 38 - - 992,5 10
22.11.2017 15:00:00 12,7 10,2 70 38 72 39 993,0 10
22.11.2017 14:00:00 12,6 10,2 70 38 72 39 993,5 10
22.11.2017 13:00:00 12,7 10,2 67 36 - - 993,9 10
22.11.2017 12:00:00 12,7 10,1 63 34 65 35 994,2 10
22.11.2017 11:00:00 12,7 11,0 59 32 61 33 994,6 10
22.11.2017 10:00:00 12,4 11,4 54 29 - - 995,2 10
22.11.2017 09:00:00 12,4 11,3 54 29 58 31 995,0 10
22.11.2017 08:00:00 12,6 11,3 63 34 61 33 994,7 10
22.11.2017 07:00:00 12,6 11,3 59 32 - - 994,5 10
22.11.2017 06:00:00 12,7 11,2 61 33 65 35 994,6 10
22.11.2017 05:00:00 12,5 11,2 59 32 61 33 994,9 10
22.11.2017 04:00:00 12,5 11,1 63 34 - - 995,0 10
22.11.2017 03:00:00 12,1 11,0 63 34 65 35 995,3 10
22.11.2017 02:00:00 11,8 11,4 59 32 58 31 995,7 8
22.11.2017 01:00:00 11,4 10,9 55 30 - - 996,6 10
22.11.2017 00:00:00 11,7 10,4 54 29 54 29 997,4 10
21.11.2017 23:00:00 11,6 10,0 48 26 54 29 998,2 10
21.11.2017 22:00:00 11,6 10,3 48 26 - - 999,2 10
21.11.2017 21:00:00 11,3 11,0 42 23 47 25 999,4 6
21.11.2017 20:00:00 11,5 11,5 39 21 43 23 1000,6 3,0
21.11.2017 19:00:00 11,2 11,0 35 19 - - 1001,6 10
21.11.2017 18:00:00 10,7 10,4 31 17 32 18 1002,4 4,6
21.11.2017 17:00:00 10,6 9,8 24 13 25 14 1003,3 10
21.11.2017 16:00:00 10,5 8,9 26 14 - - 1003,9 10
21.11.2017 15:00:00 10,3 9,2 29 16 29 16 1004,4 10
21.11.2017 14:00:00 10,1 8,6 28 15 29 16 1005,2 10
21.11.2017 13:00:00 9,9 8,7 29 16 - - 1005,7 10
21.11.2017 12:00:00 9,7 8,8 22 12 - - 1006,9 10
21.11.2017 11:00:00 9,8 8,4 24 13 22 12 1007,2 10
21.11.2017 10:00:00 9,7 7,9 21 11 - - 1007,4 10
21.11.2017 09:00:00 9,5 7,6 16 9 18 10 1007,3 10
21.11.2017 08:00:00 9,5 7,7 18 10 18 10 1007,2 10
21.11.2017 07:00:00 9,4 7,3 16 9 - - 1007,1 10
21.11.2017 06:00:00 9,4 7,4 16 9 18 10 1007,2 10
21.11.2017 05:00:00 9,4 7,2 16 9 18 10 1007,2 10
21.11.2017 04:00:00 9,3 7,5 18 10 - - 1007,4 10
21.11.2017 03:00:00 9,1 7,5 18 10 25 14 1007,6 10
21.11.2017 02:00:00 8,7 7,7 28 15 25 14 1006,9 10
21.11.2017 01:00:00 8,6 7,4 22 12 - - 1007,3 10
21.11.2017 00:00:00 8,5 8,0 24 13 25 14 1007,2 3,2
20.11.2017 23:00:00 8,8 7,9 31 17 32 18 1006,8 10
20.11.2017 22:00:00 8,8 8,1 34 18 - - 1006,3 6
20.11.2017 21:00:00 8,9 8,1 31 17 32 18 1006,4 9
20.11.2017 20:00:00 8,9 8,2 37 20 36 19 1006,3 5
20.11.2017 19:00:00 9,2 8,2 37 20 - - 1005,6 10
20.11.2017 18:00:00 9,1 7,9 37 20 36 19 1005,8 10
20.11.2017 17:00:00 8,8 7,7 34 18 40 21 1006,1 10
20.11.2017 16:00:00 8,4 7,5 37 20 - - 1006,7 10
20.11.2017 15:00:00 8,4 7,0 28 15 29 16 1007,5 10
20.11.2017 14:00:00 7,7 6,4 24 13 25 14 1008,4 10
20.11.2017 13:00:00 7,6 5,5 16 9 - - 1010,0 10
20.11.2017 12:00:00 7,3 5,0 16 9 22 12 1011,2 10
20.11.2017 11:00:00 7,0 4,2 15 8 18 10 1012,2 10
20.11.2017 10:00:00 6,8 3,1 16 9 - - 1012,8 -
20.11.2017 09:00:00 6,6 3,8 24 13 29 16 1013,2 -
20.11.2017 08:00:00 6,8 3,4 28 15 40 21 1013,6 10
20.11.2017 07:00:00 7,7 2,4 39 21 - - 1013,7 -
20.11.2017 06:00:00 8,5 1,9 31 17 36 19 1014,1 -
20.11.2017 05:00:00 7,7 2,8 31 17 43 23 1014,5 -
20.11.2017 04:00:00 7,5 3,3 39 21 - - 1014,9 10
20.11.2017 03:00:00 8,1 2,7 29 16 47 25 1015,4 -
20.11.2017 02:00:00 8,2 1,7 37 20 43 23 1015,5 -
20.11.2017 01:00:00 8,3 2,0 35 19 - - 1016,2 -
20.11.2017 00:00:00 8,2 2,8 31 17 40 21 1016,2 10
19.11.2017 23:00:00 8,5 1,5 41 22 43 23 1016,1 -
19.11.2017 22:00:00 8,4 2,2 37 20 - - 1016,3 10
19.11.2017 21:00:00 8,3 1,9 46 25 50 27 1016,3 -
19.11.2017 20:00:00 8,9 1,7 48 26 54 29 1015,9 -
19.11.2017 19:00:00 8,7 0,8 52 28 - - 1015,3 -
19.11.2017 18:00:00 8,8 1,4 55 30 58 31 1014,8 -
19.11.2017 17:00:00 8,6 4,1 57 31 61 33 1015,0 -
19.11.2017 16:00:00 8,9 1,6 61 33 - - 1014,0 -
19.11.2017 15:00:00 8,6 2,1 65 35 68 37 1013,3 10
19.11.2017 14:00:00 9,0 2,3 67 36 68 37 1013,1 -
19.11.2017 13:00:00 8,4 4,0 67 36 - - 1013,4 10
19.11.2017 12:00:00 9,1 1,9 68 37 76 41 1011,9 -
19.11.2017 11:00:00 9,0 2,0 72 39 79 43 1011,3 -
19.11.2017 10:00:00 9,1 1,9 78 42 - - 1010,4 10
19.11.2017 09:00:00 9,2 2,8 80 43 79 43 1009,6 10
19.11.2017 08:00:00 9,2 3,1 78 42 79 43 1008,8 10
19.11.2017 07:00:00 9,2 4,3 74 40 - - 1008,9 10
19.11.2017 06:00:00 8,8 4,0 76 41 76 41 1008,7 10
19.11.2017 05:00:00 9,0 4,6 80 43 83 45 1008,5 10
19.11.2017 04:00:00 9,1 3,0 78 42 - - 1008,1 10
19.11.2017 03:00:00 8,9 2,3 80 43 79 43 1008,4 10
19.11.2017 02:00:00 9,0 2,6 70 38 79 43 1008,1 10

tt = Température de l'air
td = dewpoint
ff = Vitesse du vent
fx = gusts
ppp = reduced air pressure
vv = visibility

stations d'obs. à proximité